Powrót do katalogu

STARLINK-35311

AktywnyŁącznośćVLEO
NORAD 66032·PAYLOAD·🇺🇸 United States

Wystrzelony Oct 16, 2025 z Cape Canaveral Space Force Station

Loading…

Następne Przeloty (najbliższe 24 godziny)

TLE

ŚwieżeSource: CelesTrak SupGP

Epoka: Sep 14, 2026, 21:10 UTC

1 66032C 25232AD  26257.88243056  .00006052  00000+0  17887-3 0  2572
2 66032  53.1583 301.6713 0001255  92.9397 149.0536 15.34377091    16

Śledź STARLINK-35311 w czasie rzeczywistym z AllMySat

Download on the App Store